Regional Weather Roundup
Issued by NWS

Home | Current Version | Previous Version | Text Only | Print | Product List | Glossary On
Versions: 1 2 3 4 5 6 7 8 9 10 11 12 13 14 15 16 17 18 19 20 21 22 23 24 25 26 27 28 29 30 31 32 33 34 35 36 37 38 39 40 41 42 43 44 45 46 47 48 49 50
000
ASUS44 KLIX 251413
RWRLA
LOUISIANA WEATHER ROUNDUP
NATIONAL WEATHER SERVICE NEW ORLEANS LA
900 AM CDT SAT MAR 25 2017

NOTE: "FAIR" INDICATES FEW OR NO CLOUDS BELOW 12,000 FEET WITH NO
      SIGNIFICANT WEATHER AND/OR OBSTRUCTIONS TO VISIBILITY.
      SKY/WX - SKY CONDITION AND SIGNIFICANT WEATHER.
      TMP - AIR TEMPERATURE.    DP   - DEWPOINT TEMPERATURE.
      RH  - RELATIVE HUMIDITY.  PRES - PRESSURE.
      HX  - HEAT INDEX.         WCI  - WIND CHILL INDEX.

*  THESE STATIONS ARE NOT NWS OR FAA STATIONS AND ARE NOT UNDER
   NWS QUALITY CONTROL.

LAZ040-048-061>063-065-066-069-251500-
SOUTHEAST LOUISIANA

CITY           SKY/WX    TMP DP  RH WIND       PRES   REMARKS
N.O. INTL ARPT PTSUNNY   74  68  81 S18G26    30.07S
N.O. LAKEFRONT CLOUDY    74  69  85 S17       30.07F
N.O. DOWNTOWN*   N/A     73  68  84 S18G24    30.08S
RESERVE*       CLOUDY    74  70  87 S9        30.08S
SLIDELL        CLOUDY    74  68  81 S13G24    30.08R
BATON ROUGE    LGT RAIN  63  61  93 S5        30.06F
BOOTHVILLE     CLOUDY    72  69  90 S9        30.13R
BELLE CHASSE   PTSUNNY   72  68  87 S15       30.09R
BOGALUSA*      NOT AVBL
GALLIANO*      PTSUNNY   74  67  79 S14       30.09S
NEW ROADS*     FAIR      61  59  96 SE3       30.06S
GONZALES*      CLOUDY    64  61  89 NE6       30.08R
HAMMOND*       HVY RAIN  61  59  94 NW6       30.09F
HOUMA*         PTSUNNY   73  70  88 SE16      30.07S
PORT FOURCHON* SUNNY     73  70  88 SE10G17   30.09F

$$

LAZ041-044-053-054-251500-
SOUTHWEST LOUISIANA

CITY           SKY/WX    TMP DP  RH WIND       PRES   REMARKS
LAKE CHARLES   RAIN      62  59  90 W14G30    30.08R FOG
LAFAYETTE      CLOUDY    68  65  90 CALM      30.05R
PATTERSON      CLOUDY    73  69  87 S12       30.07S
SALT POINT       N/A     71  68  90 VRB5      30.06R
NEW IBERIA     CLOUDY    68  65  90 S8        30.06R
CHENAULT AIRPK CLOUDY    64  59  82 W20G41    30.06R

$$

LAZ027-028-251500-
CENTRAL LOUISIANA

CITY           SKY/WX    TMP DP  RH WIND       PRES   REMARKS
FORT POLK      LGT RAIN  64  64 100 S15       29.98R FOG
ALEXANDRIA INT MOSUNNY   63  60  90 SE7       29.97S
ALEXANDRIA     CLOUDY    62  59  90 S7        30.00R

$$

LAZ001-002-251500-
NORTHWEST LOUISIANA

CITY           SKY/WX    TMP DP  RH WIND       PRES   REMARKS
SHREVEPORT     MOSUNNY   63  50  62 W15G21    29.97R
BARKSDALE AFB  SUNNY     63  51  64 W12       29.96R
DTN SHREVEPORT SUNNY     63  50  62 W13       29.97R

$$

LAZ014-016-251500-
NORTHEAST LOUISIANA

CITY           SKY/WX    TMP DP  RH WIND       PRES   REMARKS
MONROE         CLOUDY    61  58  90 S7        29.98R
TALLULAH       CLOUDY    61  57  87 S16       30.00S

$$




USA.gov is the U.S. government's official web portal to all federal, state and local government web resources and services.